[[{"header":{"parameterUnit":"m.s-1","parameterCategory":1,"la1":30.2991,"la2":30.254,"lo1":-89.0895,"lo2":-89.0444,"dy":0.0017,"dx":0.0017,"nx":28,"ny":28,"refTime":"2025-02-06T09:00:00:Z","depth":0,"parameterNumber":2,"parameterNumberName":"U-component_of_WINDS"},"data":[0,0,0,0,0,0,0,0,0,0,0,0,0,0,0,0,0,0,0,0,0,0,0,0,0,0,0,0,0,0,0,0,0,0,0,0,0,0,0,0,0,0,0,0,0,0,0,0,0,0,0,0,0,0,0,0,0,0,-2.2607,-2.2606,0,-2.2547,-2.2546,-2.2546,-2.2459,-2.2458,-2.2456,-2.2455,-2.2393,-2.2393,-2.2392,0,0,0,0,0,0,0,0,0,0,0,0,0,-2.2646,-2.2646,-2.2607,-2.2606,-2.2606,-2.2547,-2.2546,-2.2546,-2.246,-2.2458,-2.2456,-2.2454,-2.2393,-2.2393,-2.2392,0,0,0,0,0,0,0,0,0,0,0,0,0,-2.2612,-2.2646,-2.2607,-2.2556,-2.255,-2.2547,-2.2546,-2.2545,-2.246,-2.2458,-2.2456,-2.2453,-2.2393,-2.2393,-2.2392,-2.2434,0,0,-2.2391,-2.2391,0,0,0,0,0,0,0,0,-2.2614,-2.2611,-2.2564,-2.2559,-2.2553,-2.2508,-2.2537,-2.2508,-2.2461,-2.2494,-2.2455,-2.2452,-2.2433,-2.2429,-2.2423,-2.2432,-2.2429,-2.2391,-2.2391,-2.2391,-2.239,0,0,0,0,0,0,0,-2.2617,-2.2613,-2.2583,-2.2563,-2.2557,-2.2535,-2.2528,-2.2531,-2.2477,-2.2491,-2.2485,-2.2479,-2.243,-2.2423,-2.2421,-2.2428,-2.2391,-2.2391,-2.239,-2.239,-2.2468,-2.247,0,0,0,0,0,0,-2.2627,-2.2615,-2.2585,-2.2581,-2.2579,-2.2536,-2.2528,-2.2525,-2.2477,-2.2467,-2.2481,-2.2475,-2.2425,-2.2421,-2.2418,-2.2464,-2.2391,-2.239,-2.239,-2.2465,-2.2468,-2.2471,0,0,0,0,0,0,-2.2628,-2.2625,-2.2588,-2.2597,-2.259,-2.2538,-2.2535,-2.2525,-2.2519,-2.2469,-2.2459,-2.2485,-2.2423,-2.2419,-2.2431,-2.2461,-2.239,-2.239,-2.2463,-2.2466,-2.2469,-2.2557,0,0,0,0,0,0,-2.2629,-2.2626,-2.2642,-2.2598,-2.259,-2.2602,-2.2537,-2.2526,-2.2518,-2.251,-2.247,-2.2461,-2.2421,-2.2432,-2.2431,-2.2459,-2.2389,-2.246,-2.2464,-2.2468,-2.2551,-2.2563,-2.2573,0,0,0,0,0,-2.2631,-2.2668,-2.2643,-2.264,-2.2609,-2.2604,-2.26,-2.2554,-2.2521,-2.2536,-2.2504,-2.2462,-2.2458,-2.2434,-2.2432,-2.246,-2.2458,-2.2463,-2.2468,-2.2546,-2.256,-2.2573,0,0,0,0,0,0,-2.2717,-2.2662,-2.2633,-2.2657,-2.2636,-2.2589,-2.2607,-2.257,-2.2558,-2.2551,-2.2494,-2.2485,-2.2505,-2.2483,-2.2458,-2.2498,-2.2451,-2.2456,-2.2511,-2.2525,-2.2535,-2.254,-2.2389,0,0,0,0,0,-2.2739,-2.274,-2.2691,-2.2718,-2.2708,-2.266,-2.2656,-2.2623,-2.2598,-2.2589,-2.2557,-2.2535,-2.2528,-2.2525,-2.2517,-2.2547,-2.2537,-2.2566,-2.2577,-2.2586,-2.2591,-2.2605,-2.2617,-2.2488,-2.2487,-2.2487,0,0,-2.2784,-2.2754,-2.2758,-2.2734,-2.2714,-2.2716,-2.2653,-2.2658,-2.2658,-2.2589,-2.2599,-2.2575,-2.2546,-2.2568,-2.2576,-2.2551,-2.2625,-2.2593,-2.26,-2.26,-2.2612,-2.2624,-2.2635,-2.2491,-2.249,-2.249,0,0,-2.2867,-2.2845,-2.2864,-2.2845,-2.2815,-2.2782,-2.2787,-2.2746,-2.2728,-2.2737,-2.2684,-2.2684,-2.2674,-2.2656,-2.2645,-2.2721,-2.2682,-2.272,-2.2777,-2.2792,-2.2802,-2.2811,-2.2838,-2.2848,-2.2725,-2.2725,-2.2725,0,-2.2927,-2.2928,-2.2878,-2.2886,-2.2877,-2.2815,-2.2834,-2.2817,-2.2786,-2.2781,-2.2754,-2.274,-2.2716,-2.2732,-2.2751,-2.2745,-2.2748,-2.2724,-2.2805,-2.2813,-2.282,-2.2845,-2.2855,-2.273,-2.273,-2.2729,-2.2729,0,-2.3003,-2.3004,-2.3023,-2.2995,-2.2988,-2.3002,-2.2954,-2.2952,-2.292,-2.289,-2.2899,-2.2869,-2.2852,-2.2854,-2.2822,-2.2865,-2.2851,-2.2815,-2.2766,-2.2838,-2.2861,-2.287,-2.2737,-2.2735,-2.2734,-2.2733,0,0,-2.3138,-2.3082,-2.309,-2.3076,-2.3039,-2.3039,-2.3049,-2.3034,-2.3034,-2.3014,-2.3021,-2.3014,-2.2981,-2.2969,-2.2934,-2.2946,-2.3008,-2.2908,-2.2907,-2.2928,-2.3054,-2.3082,-2.3093,-2.2982,-2.2983,-2.2985,-2.3056,0,-2.3214,-2.3229,-2.3185,-2.3211,-2.3211,-2.3152,-2.3161,-2.3139,-2.3111,-2.3107,-2.3076,-2.3072,-2.3029,-2.3021,-2.3031,-2.2999,-2.3033,-2.2993,-2.2987,-2.2988,-2.2996,-2.3105,-2.3134,-2.3203,-2.3065,-2.3066,-2.3067,0,-2.3304,-2.329,-2.3316,-2.3277,-2.3275,-2.3284,-2.3266,-2.3263,-2.3237,-2.3216,-2.3202,-2.3162,-2.3169,-2.3122,-2.3131,-2.3105,-2.3099,-2.3083,-2.3085,-2.3082,-2.3032,-2.3106,-2.3224,-2.3235,-2.3081,-2.308,-2.3079,0,-2.34,-2.3387,-2.3401,-2.3391,-2.3346,-2.3353,-2.3335,-2.3306,-2.3299,-2.3283,-2.3278,-2.3263,-2.3255,-2.3244,-2.3201,-2.3171,-2.3214,-2.3164,-2.3196,-2.3198,-2.3208,-2.3208,-2.3328,-2.3205,-2.3205,-2.3205,-2.3205,0,-2.3489,-2.3508,-2.3444,-2.3453,-2.3471,-2.342,-2.344,-2.3415,-2.339,-2.3392,-2.334,-2.3343,-2.3285,-2.3282,-2.3247,-2.3259,-2.3256,-2.3239,-2.3229,-2.3243,-2.3246,-2.3239,-2.3233,-2.3208,-2.3207,-2.3207,-2.3206,0,-2.36,-2.3558,-2.3569,-2.3525,-2.3515,-2.353,-2.3492,-2.3498,-2.3467,-2.3471,-2.3469,-2.342,-2.3414,-2.3369,-2.3352,-2.3329,-2.3353,-2.3334,-2.3363,-2.3356,-2.3391,-2.3388,-2.3511,-2.3524,-2.3394,-2.3395,-2.3396,0,-2.366,-2.3672,-2.363,-2.3628,-2.3612,-2.3609,-2.3602,-2.3552,-2.3547,-2.3517,-2.3527,-2.3516,-2.3504,-2.3496,-2.3459,-2.3446,-2.3426,-2.347,-2.3424,-2.3437,-2.3426,-2.3426,-2.3427,-2.348,-2.3482,-2.3483,-2.3484,0,-2.377,-2.3748,-2.374,-2.3726,-2.3719,-2.3705,-2.3687,-2.3688,-2.3633,-2.3629,-2.3622,-2.3614,-2.3596,-2.3586,-2.3566,-2.3546,-2.3506,-2.3499,-2.3506,-2.352,-2.3536,-2.3528,-2.3389,-2.3496,-2.3495,-2.3494,-2.3494,-2.3493,-2.3856,-2.3865,-2.3836,-2.3829,-2.3811,-2.3796,-2.3799,-2.3769,-2.3762,-2.3744,-2.3715,-2.3712,-2.3684,-2.3653,-2.3636,-2.3633,-2.3609,-2.3619,-2.3622,-2.3625,-2.3632,-2.3537,-2.3629,-2.3628,-2.3628,-2.3628,-2.3627,0,-2.3964,-2.3942,-2.3936,-2.3914,-2.3908,-2.3871,-2.385,-2.3847,-2.3846,-2.3823,-2.3813,-2.3805,-2.3795,-2.3757,-2.3742,-2.3747,-2.3728,-2.3744,-2.3744,-2.3739,-2.3654,-2.365,-2.376,-2.376,-2.376,-2.376,-2.376,-2.376,-2.4019,-2.4031,-2.4007,-2.4009,-2.3987,-2.3985,-2.3975,-2.3961,-2.3943,-2.3936,-2.3927,-2.3903,-2.3874,-2.3857,-2.3845,-2.3834,-2.3831,-2.3854,-2.3837,-2.3758,-2.3746,-2.3733,-2.3729,-2.3854,-2.3854,-2.3923,-2.3924,-2.3924]},{"header":{"parameterUnit":"m.s-1","parameterCategory":1,"la1":30.2991,"la2":30.254,"lo1":-89.0895,"lo2":-89.0444,"dy":0.0017,"dx":0.0017,"nx":28,"ny":28,"refTime":"2025-02-06T09:00:00:Z","depth":0,"parameterNumber":3,"parameterNumberName":"V-component_of_WINDS"},"data":[0,0,0,0,0,0,0,0,0,0,0,0,0,0,0,0,0,0,0,0,0,0,0,0,0,0,0,0,0,0,0,0,0,0,0,0,0,0,0,0,0,0,0,0,0,0,0,0,0,0,0,0,0,0,0,0,0,0,0.6496,0.6496,0,0.6508,0.6508,0.6508,0.6573,0.6574,0.6576,0.6577,0.6586,0.6585,0.6584,0,0,0,0,0,0,0,0,0,0,0,0,0,0.6524,0.6523,0.6496,0.6496,0.6496,0.6508,0.6508,0.6508,0.6572,0.6574,0.6576,0.6578,0.6586,0.6585,0.6584,0,0,0,0,0,0,0,0,0,0,0,0,0,0.6521,0.6523,0.6496,0.6529,0.6533,0.6508,0.6508,0.6508,0.6572,0.6574,0.6577,0.6579,0.6587,0.6585,0.6583,0.6526,0,0,0.6578,0.6577,0,0,0,0,0,0,0,0,0.6522,0.652,0.6524,0.6527,0.6531,0.6541,0.6522,0.6514,0.6571,0.6557,0.6577,0.658,0.6569,0.6569,0.6566,0.6526,0.6527,0.6578,0.6577,0.6576,0.6575,0,0,0,0,0,0,0,0.6522,0.652,0.65,0.6524,0.6528,0.6543,0.6545,0.652,0.655,0.6558,0.6563,0.6564,0.6571,0.6568,0.6567,0.6527,0.6578,0.6576,0.6575,0.6574,0.6441,0.6439,0,0,0,0,0,0,0.6518,0.652,0.65,0.6501,0.6532,0.6541,0.6543,0.6535,0.655,0.6555,0.6562,0.6567,0.6569,0.6569,0.6567,0.6501,0.6576,0.6574,0.6573,0.6443,0.644,0.6438,0,0,0,0,0,0,0.6518,0.6515,0.65,0.6512,0.6511,0.6538,0.6528,0.6534,0.6531,0.6553,0.6558,0.6553,0.6571,0.657,0.6536,0.6502,0.6573,0.6572,0.6446,0.6442,0.6439,0.6368,0,0,0,0,0,0,0.6518,0.6515,0.6494,0.6511,0.651,0.6469,0.6526,0.6533,0.6528,0.6535,0.6546,0.655,0.6573,0.6538,0.6534,0.6501,0.657,0.6449,0.6445,0.644,0.6374,0.6363,0.6353,0,0,0,0,0,0.6519,0.6473,0.6493,0.649,0.6485,0.6467,0.6466,0.6495,0.6525,0.6504,0.6518,0.655,0.6507,0.6534,0.653,0.6496,0.6452,0.6446,0.6441,0.6378,0.6365,0.6353,0,0,0,0,0,0,0.645,0.6476,0.6498,0.6456,0.6459,0.6478,0.6452,0.6479,0.6473,0.6479,0.6514,0.6516,0.6477,0.6483,0.6513,0.6441,0.6485,0.6478,0.6439,0.6426,0.6416,0.6415,0.6569,0,0,0,0,0,0.643,0.6415,0.6437,0.6398,0.6398,0.6425,0.6418,0.644,0.6444,0.6445,0.6457,0.6458,0.6446,0.6436,0.6425,0.6375,0.6378,0.6349,0.6339,0.6331,0.6324,0.6298,0.6285,0.642,0.642,0.642,0,0,0.6388,0.64,0.6388,0.6384,0.6389,0.6372,0.6425,0.6404,0.6391,0.6442,0.6411,0.6419,0.6424,0.6381,0.6363,0.6385,0.6288,0.6323,0.6316,0.6315,0.6291,0.6278,0.6267,0.6416,0.6416,0.6417,0,0,0.6303,0.6311,0.6279,0.6283,0.6291,0.6309,0.6301,0.6316,0.6324,0.6294,0.6331,0.6316,0.6292,0.6294,0.6292,0.6207,0.6236,0.6203,0.6149,0.6122,0.6112,0.6103,0.6072,0.6061,0.6196,0.6196,0.6196,0,0.625,0.6226,0.6259,0.6236,0.6232,0.6279,0.6246,0.6248,0.6251,0.6247,0.6272,0.6245,0.6251,0.6209,0.6189,0.6185,0.6177,0.6201,0.6111,0.6102,0.6094,0.6065,0.6054,0.6192,0.6193,0.6193,0.6193,0,0.616,0.6143,0.6116,0.6119,0.6113,0.6085,0.6112,0.6102,0.6124,0.6139,0.6108,0.6117,0.6109,0.6101,0.6121,0.6062,0.6076,0.6105,0.6149,0.6076,0.605,0.6039,0.6186,0.6188,0.6189,0.619,0,0,0.6032,0.6054,0.6043,0.6045,0.6057,0.6043,0.6017,0.6011,0.6001,0.6001,0.5979,0.5959,0.5987,0.5984,0.6006,0.5983,0.5915,0.6015,0.6016,0.5996,0.5849,0.5827,0.5814,0.5934,0.5932,0.5931,0.5849,0,0.595,0.5908,0.5937,0.5889,0.5873,0.5917,0.5894,0.5898,0.5911,0.5899,0.5913,0.5898,0.5936,0.5935,0.5914,0.5928,0.5886,0.5934,0.5913,0.5912,0.5911,0.58,0.5776,0.5698,0.5839,0.5837,0.5836,0,0.585,0.5847,0.5798,0.5813,0.5807,0.5786,0.5783,0.577,0.5776,0.5787,0.5784,0.5811,0.5786,0.5829,0.5794,0.5826,0.5819,0.5825,0.5822,0.5821,0.5869,0.5795,0.5674,0.5662,0.582,0.5821,0.5823,0,0.576,0.5744,0.5713,0.5713,0.573,0.5714,0.572,0.5728,0.5722,0.5718,0.5715,0.5707,0.5703,0.5696,0.5721,0.5751,0.5682,0.5728,0.569,0.5689,0.5673,0.5673,0.5548,0.5669,0.5669,0.5669,0.5669,0,0.5666,0.5635,0.5673,0.5654,0.562,0.5653,0.5617,0.5628,0.5634,0.5617,0.5654,0.5636,0.567,0.5656,0.5675,0.5642,0.564,0.5647,0.5653,0.5644,0.5643,0.564,0.5645,0.5666,0.5667,0.5667,0.5668,0,0.5561,0.5586,0.5554,0.5573,0.5577,0.5551,0.5566,0.5549,0.5565,0.5542,0.5539,0.5563,0.5548,0.5572,0.556,0.5573,0.5527,0.5541,0.5526,0.553,0.549,0.5493,0.5358,0.5342,0.5473,0.5472,0.5471,0,0.5499,0.5476,0.5492,0.5484,0.5488,0.5474,0.5469,0.55,0.5493,0.5497,0.5478,0.5467,0.546,0.5434,0.545,0.544,0.5454,0.5407,0.5453,0.5444,0.5453,0.5454,0.5451,0.5398,0.5396,0.5395,0.5394,0,0.5387,0.54,0.5392,0.5387,0.538,0.5377,0.5378,0.5368,0.5401,0.5391,0.5377,0.5371,0.5359,0.5347,0.5342,0.5347,0.5375,0.538,0.537,0.5361,0.5353,0.5356,0.55,0.5382,0.5383,0.5384,0.5385,0.5385,0.5301,0.5283,0.5291,0.528,0.5284,0.5283,0.5268,0.5282,0.5271,0.5265,0.5284,0.5265,0.5271,0.5267,0.5269,0.5254,0.5274,0.526,0.5257,0.5253,0.5247,0.5355,0.5253,0.5253,0.5253,0.5254,0.5254,0,0.5191,0.5199,0.5188,0.5188,0.5179,0.5208,0.5209,0.52,0.5183,0.5186,0.5179,0.5162,0.5151,0.5166,0.5157,0.5142,0.5154,0.5138,0.5139,0.514,0.5229,0.5238,0.5128,0.5128,0.5128,0.5128,0.5128,0.5128,0.5132,0.5102,0.5116,0.5088,0.5096,0.5079,0.5078,0.5077,0.508,0.506,0.5051,0.5062,0.5069,0.5061,0.5051,0.5056,0.5051,0.503,0.5039,0.5121,0.5134,0.5145,0.5154,0.5028,0.5028,0.4951,0.495,0.495]}]]